Location: *
(40.7873°S, 98.7174°E)
Time: 10:40:12
(UTC+00:00)

Cosmos 1606 - Pass Details

Date: 24 May 2022
Orbit: 498 x 520 km, 82.5° (Epoch: 05 July)

Event Time Altitude Azimuth Distance (km) Brightness Sun altitude
Rises 10:42:54 0° 191° (S) 2,692 6.2 -6.4°
Reaches altitude 10° 10:45:05 10° 193° (SSW) 1,794 5.4 -6.8°
Maximum altitude 10:49:00 67° 275° (W) 581 3.2 -7.5°
Drops below altitude 10° 10:52:50 10° 357° (N) 1,763 5.7 -8.2°
Sets 10:54:58 0° 360° (N) 2,640 6.6 -8.6°
